Tracking 26006 objects as of 17-Aug-2022
HD Live streaming from Space Station
objects crossing your sky now

OBJECT F

Track OBJECT F now!
10-day predictions


NORAD ID: 47859
Int'l Code: 2021-020F
Perigee: 1,065.2 km
Apogee: 1,135.9 km
Inclination: 63.4 °
Period: 107.1 minutes
Semi major axis: 7471 km
RCS: Unknown
Launch date: March 13, 2021
Source: People's Republic of China (PRC)
Launch site: Jiuquan Satellite Launch Center, China (JSC)
aabbcc
Your satellite tracking list
Your tracking list is empty




NASA's NSSDC Master Catalog

Two Line Element Set (TLE):
1 47859U 21020F   22228.77342855 -.00000052  00000-0  65106-4 0  9995
2 47859  63.4095 256.8537 0047291 357.2448   2.8310 13.44279742 70121
Source of the keplerian elements: AFSPC